Location: Burland Observatory
(39.4088°N, 105.4217°W)
Time: 12:42:08
(UTC-07:00)

Explorer 7 - Pass Details

Date: 10 December 2019
Orbit: 485 x 679 km, 50.3° (Epoch: 28 January)

Event Time Altitude Azimuth Distance (km) Brightness Sun altitude
Rises 17:31:46 0° 275° (W) 3,005 11.8 -10.2°
Reaches altitude 10° 17:34:27 10° 288° (WNW) 2,105 10.6 -10.7°
Maximum altitude 17:38:35 27° 346° (NNW) 1,301 8.6 -11.4°
Enters shadow 17:42:09 13° 40° (NE) 1,929 9.1 -12.1°
